Location: Burbank
(38.7788°N, 114.0429°W)
Time: 19:48:08
(UTC+00:00)

Vanguard 2 - Pass Details

Date: 17 May 2026
Orbit: 553 x 2894 km, 32.9° (Epoch: 6 June)

Event Time Altitude Azimuth Distance (km) Brightness Sun altitude
Rises 06:19:11 0° 202° (SSW) 5,626 - -29.4°
Reaches altitude 10° 06:23:20 10° 191° (SSW) 4,934 - -29.7°
Maximum altitude 06:35:14 29° 139° (SE) 4,168 - -30.3°
Exits shadow 06:38:55 27° 121° (ESE) 4,380 10.9 -30.5°
Drops below altitude 10° 06:48:48 10° 89° (E) 5,690 11.8 -31.0°
Sets 06:53:59 0° 79° (E) 6,606 12.3 -31.2°
